Hourly Data Report for July 16, 2021

CAMPBELL RIVER A
BRITISH COLUMBIA
Current Station Operator: NAVCAN

49°57'07.000" N
125°16'23.000" W
108.80 m
1021270
YBL

Download Data

Hourly Data (July 2021)
Hourly Data Report for July 16, 2021
TIME
LST
Temp Definition
°C
Dew Point Definition
°C
Rel Hum Definition
%
Precip. Amount Definition
mm

Wind Dir Definition
10's deg

Wind Spd Definition
km/h
Visibility Definition
km
Stn Press Definition
kPa
Hmdx Definition


Wind Chill Definition


Weather Definition


00:00 16.0 14.9 93 LegendMM 31 5 LegendMM 100.15     LegendNANA
01:00 15.5 14.3 93 LegendMM 30 5 LegendMM 100.13     LegendNANA
02:00 16.6 14.7 89 LegendMM 31 9 LegendMM 100.15     LegendNANA
03:00 17.1 13.9 81 LegendMM 6 7 LegendMM 100.14     LegendNANA
04:00 16.2 14.2 87 LegendMM 11 2 LegendMM 100.14     LegendNANA
05:00 15.4 14.3 93 LegendMM 27 3 LegendMM 100.17     LegendNANA
06:00 15.9 14.3 90 LegendMM 15 1 LegendMM 100.17     LegendNANA
07:00 16.2 14.4 88 LegendMM 11 9 LegendMM 100.19     LegendNANA
08:00 16.3 14.3 88 LegendMM 6 5 LegendMM 100.20     LegendNANA
09:00 17.3 14.3 82 LegendMM 9 7 LegendMM 100.21     LegendNANA
10:00 17.8 13.9 78 LegendMM 12 15 LegendMM 100.21     LegendNANA
11:00 17.3 13.8 80 LegendMM 10 21 LegendMM 100.24     LegendNANA
12:00 18.5 13.8 73 LegendMM 12 26 LegendMM 100.23     LegendNANA
13:00 18.5 14.2 76 LegendMM 11 25 LegendMM 100.23     LegendNANA
14:00 17.0 14.7 86 LegendMM 10 21 LegendMM 100.22     LegendNANA
15:00 17.6 14.4 81 LegendMM 11 22 LegendMM 100.20     LegendNANA
16:00 17.7 14.0 79 LegendMM 11 29 LegendMM 100.14     LegendNANA
17:00 16.0 13.7 86 LegendMM 11 16 LegendMM 100.13     LegendNANA
18:00 18.1 12.9 71 LegendMM 12 13 LegendMM 100.12     LegendNANA
19:00 17.4 11.7 69 LegendMM 10 8 LegendMM 100.12     LegendNANA
20:00 16.4 11.5 73 LegendMM 9 10 LegendMM 100.14     LegendNANA
21:00 16.1 11.7 75 LegendMM 6 6 LegendMM 100.17     LegendNANA
22:00 14.0 12.2 89 LegendMM   0 LegendMM 100.20     LegendNANA
23:00 13.0 12.1 94 LegendMM 32 4 LegendMM 100.20     LegendNANA

Notes on Data Quality.

Legend

  • E = Estimated
  • M = Missing
  • NA = Not Available*
  • [empty] = Indicates an unobserved value
Date modified: